KUGR13 CYOD-CYOD

Flight info

Callsign KUGR13
Flight time 0h 33m
Altitude 15000
Route VFR WITHIN COLD LAKE WEAPONS RANGE
Aircraft F18H/M-SDFGRWY/S

Departure

Time 2026-04-19 01:22
Airport CFB Cold Lake (CYOD)

Arrival

Time 2026-04-19 01:56
Airport CFB Cold Lake (CYOD)
Time Latitude Longitude Altitude Speed Heading
2026-04-19 01:08 54.40675 -110.27273 1777 ft 0 kts 151°
2026-04-19 01:12 54.40614 -110.27328 1777 ft 0 kts 151°
2026-04-19 01:18 54.40613 -110.27327 1777 ft 2 kts 151°
2026-04-19 01:18 54.40579 -110.27358 1778 ft 10 kts 217°
2026-04-19 01:19 54.40503 -110.27351 1777 ft 9 kts 152°
2026-04-19 01:19 54.40446 -110.27365 1777 ft 11 kts 231°
2026-04-19 01:19 54.40392 -110.27493 1779 ft 17 kts 233°
2026-04-19 01:19 54.40316 -110.27672 1778 ft 18 kts 233°
2026-04-19 01:20 54.40252 -110.27816 1778 ft 11 kts 232°
2026-04-19 01:20 54.40196 -110.27952 1778 ft 14 kts 234°
2026-04-19 01:20 54.40122 -110.27976 1778 ft 13 kts 113°
2026-04-19 01:20 54.40104 -110.27801 1778 ft 18 kts 99°
2026-04-19 01:21 54.40037 -110.27738 1777 ft 15 kts 215°
2026-04-19 01:21 54.39960 -110.27903 1778 ft 17 kts 232°
2026-04-19 01:21 54.39976 -110.28030 1778 ft 9 kts 314°
2026-04-19 01:21 54.39997 -110.28054 1779 ft 5 kts 336°
2026-04-19 01:22 54.40080 -110.28148 1779 ft 40 kts 326°
2026-04-19 01:22 54.40671 -110.28881 1781 ft 189 kts 326°
2026-04-19 01:22 54.41812 -110.30277 2348 ft 182 kts 328°
2026-04-19 01:22 54.43027 -110.31271 3551 ft 208 kts 343°
2026-04-19 01:23 54.44370 -110.31493 5054 ft 174 kts
2026-04-19 01:23 54.45550 -110.30667 6635 ft 201 kts 43°
2026-04-19 01:23 54.46146 -110.28214 8118 ft 258 kts 80°
2026-04-19 01:23 54.46363 -110.24690 9194 ft 336 kts 81°
2026-04-19 01:24 54.46633 -110.20224 10681 ft 413 kts 81°
2026-04-19 01:24 54.46959 -110.14935 12425 ft 467 kts 81°
2026-04-19 01:24 54.47409 -110.09283 14393 ft 500 kts 76°
2026-04-19 01:24 54.48059 -110.03140 15455 ft 490 kts 75°
2026-04-19 01:25 54.48712 -109.98054 15917 ft 397 kts 66°
2026-04-19 01:25 54.49620 -109.93870 15046 ft 361 kts 62°
2026-04-19 01:25 54.50538 -109.90262 14931 ft 308 kts 62°
2026-04-19 01:25 54.51424 -109.86895 15072 ft 334 kts 54°
2026-04-19 01:26 54.52796 -109.83004 14999 ft 426 kts 46°
2026-04-19 01:26 54.54970 -109.78934 15186 ft 501 kts 41°
2026-04-19 01:26 54.57880 -109.75026 15472 ft 560 kts 26°
2026-04-19 01:26 54.61549 -109.72004 15141 ft 572 kts 20°
2026-04-19 01:27 54.64993 -109.69362 14933 ft 524 kts 25°
2026-04-19 01:27 54.68125 -109.66407 14958 ft 499 kts 29°
2026-04-19 01:27 54.70847 -109.62873 15098 ft 481 kts 34°
2026-04-19 01:27 54.73461 -109.59319 15055 ft 484 kts 34°
2026-04-19 01:28 54.76147 -109.55595 15008 ft 503 kts 36°
2026-04-19 01:28 54.78817 -109.51561 15151 ft 511 kts 37°
2026-04-19 01:28 54.81443 -109.48609 15284 ft 382 kts 17°
2026-04-19 01:28 54.83935 -109.47507 15153 ft 389 kts
2026-04-19 01:29 54.86873 -109.47278 15186 ft 461 kts 352°
2026-04-19 01:29 54.89717 -109.48812 15177 ft 396 kts 331°
2026-04-19 01:29 54.91875 -109.51409 15110 ft 368 kts 320°
2026-04-19 01:29 54.93688 -109.54861 15093 ft 401 kts 303°
2026-04-19 01:30 54.94999 -109.59295 15106 ft 439 kts 291°
2026-04-19 01:30 54.95647 -109.64381 15195 ft 417 kts 282°
2026-04-19 01:30 54.96091 -109.69263 15259 ft 405 kts 283°
2026-04-19 01:30 54.96603 -109.74400 15153 ft 463 kts 284°
2026-04-19 01:31 54.97523 -109.79513 15270 ft 419 kts 302°
2026-04-19 01:31 54.99181 -109.83435 15160 ft 384 kts 314°
2026-04-19 01:31 55.01081 -109.86365 15261 ft 349 kts 325°
2026-04-19 01:31 55.03277 -109.88863 15053 ft 414 kts 328°
2026-04-19 01:32 55.05761 -109.91578 15077 ft 408 kts 328°
2026-04-19 01:32 55.08122 -109.94064 14964 ft 404 kts 325°
2026-04-19 01:32 55.10378 -109.97220 15123 ft 421 kts 318°
2026-04-19 01:32 55.12266 -110.01264 15059 ft 426 kts 291°
2026-04-19 01:33 55.13196 -110.06262 14279 ft 439 kts 290°
2026-04-19 01:33 55.13870 -110.11347 9854 ft 435 kts 279°
2026-04-19 01:33 55.13908 -110.17143 6394 ft 551 kts 262°
2026-04-19 01:33 55.12933 -110.23955 5421 ft 523 kts 252°
2026-04-19 01:34 55.11979 -110.29014 5136 ft 370 kts 251°
2026-04-19 01:34 55.11179 -110.32665 4439 ft 278 kts 246°
2026-04-19 01:34 55.10449 -110.35302 3721 ft 208 kts 241°
2026-04-19 01:34 55.09834 -110.37127 3376 ft 153 kts 236°
2026-04-19 01:35 55.09089 -110.39122 3179 ft 233 kts 237°
2026-04-19 01:35 55.07970 -110.42121 3117 ft 353 kts 237°
2026-04-19 01:35 55.06681 -110.45573 2870 ft 345 kts 237°
2026-04-19 01:35 55.05765 -110.49274 2911 ft 287 kts 269°
2026-04-19 01:36 55.05862 -110.52378 3542 ft 229 kts 285°
2026-04-19 01:36 55.06340 -110.55185 2478 ft 241 kts 289°
2026-04-19 01:36 55.06179 -110.58388 2590 ft 332 kts 234°
2026-04-19 01:36 55.03946 -110.60299 2823 ft 449 kts 180°
2026-04-19 01:37 55.01110 -110.57384 2913 ft 535 kts 124°
2026-04-19 01:37 54.99939 -110.50687 3316 ft 630 kts 89°
2026-04-19 01:37 55.00536 -110.44100 3142 ft 456 kts 78°
2026-04-19 01:37 55.01071 -110.39347 2800 ft 369 kts 80°
2026-04-19 01:38 55.01374 -110.35205 2852 ft 329 kts 87°
2026-04-19 01:38 55.01121 -110.31327 2768 ft 320 kts 101°
2026-04-19 01:38 55.00657 -110.27413 2657 ft 343 kts 102°
2026-04-19 01:38 55.00154 -110.23242 2704 ft 360 kts 102°
2026-04-19 01:39 54.99477 -110.18964 2850 ft 372 kts 109°
2026-04-19 01:39 54.98514 -110.14680 2774 ft 392 kts 112°
2026-04-19 01:39 54.97432 -110.10127 2482 ft 424 kts 112°
2026-04-19 01:39 54.96315 -110.05441 2899 ft 393 kts 112°
2026-04-19 01:40 54.95326 -110.01300 3272 ft 347 kts 112°
2026-04-19 01:40 54.94501 -109.97454 3203 ft 334 kts 92°
2026-04-19 01:40 54.95001 -109.93044 3710 ft 430 kts 73°
2026-04-19 01:40 54.96002 -109.87484 6243 ft 510 kts 71°
2026-04-19 01:41 54.97157 -109.81429 10622 ft 535 kts 68°
2026-04-19 01:41 54.98439 -109.75353 15317 ft 527 kts 66°
2026-04-19 01:41 54.98999 -109.69129 18531 ft 513 kts 97°
2026-04-19 01:41 54.97309 -109.64569 15587 ft 433 kts 170°
2026-04-19 01:42 54.95027 -109.66419 13218 ft 361 kts 244°
2026-04-19 01:42 54.93488 -109.69778 12469 ft 342 kts 247°
2026-04-19 01:42 54.93365 -109.76508 13678 ft 261 kts 278°
2026-04-19 01:43 54.93622 -109.79576 13747 ft 245 kts 295°
2026-04-19 01:43 54.94299 -109.82262 14314 ft 252 kts 301°
2026-04-19 01:43 54.95358 -109.85198 15175 ft 324 kts 306°
2026-04-19 01:43 54.96870 -109.88746 15979 ft 406 kts 320°
2026-04-19 01:44 54.99728 -109.89829 15450 ft 489 kts 19°
2026-04-19 01:44 55.02004 -109.85107 15813 ft 569 kts 80°
2026-04-19 01:44 55.01909 -109.77722 15692 ft 634 kts 99°
2026-04-19 01:44 55.00663 -109.71118 14946 ft 525 kts 119°
2026-04-19 01:45 54.98508 -109.66900 13955 ft 415 kts 137°
2026-04-19 01:45 54.96655 -109.63987 14396 ft 325 kts 136°
2026-04-19 01:45 54.95274 -109.61139 14867 ft 296 kts 116°
2026-04-19 01:45 54.94340 -109.57733 14729 ft 353 kts 108°
2026-04-19 01:46 54.93367 -109.53085 14843 ft 468 kts 108°
2026-04-19 01:46 54.91548 -109.47858 14955 ft 504 kts 139°
2026-04-19 01:46 54.88681 -109.45123 14589 ft 468 kts 165°
2026-04-19 01:46 54.85311 -109.44966 14665 ft 510 kts 200°
2026-04-19 01:47 54.82324 -109.48165 14854 ft 515 kts 230°
2026-04-19 01:47 54.80658 -109.53163 14951 ft 453 kts 270°
2026-04-19 01:47 54.81557 -109.58011 14872 ft 425 kts 302°
2026-04-19 01:47 54.83137 -109.62096 14605 ft 403 kts 300°
2026-04-19 01:48 54.83573 -109.66880 14392 ft 433 kts 261°
2026-04-19 01:48 54.81982 -109.71563 14020 ft 465 kts 233°
2026-04-19 01:48 54.80011 -109.75913 12698 ft 471 kts 232°
2026-04-19 01:48 54.76950 -109.78242 13115 ft 527 kts 186°
2026-04-19 01:49 54.73348 -109.78236 13323 ft 483 kts 180°
2026-04-19 01:49 54.70137 -109.78032 13345 ft 453 kts 180°
2026-04-19 01:49 54.66993 -109.77812 13378 ft 454 kts 180°
2026-04-19 01:49 54.63613 -109.77582 13450 ft 531 kts 180°
2026-04-19 01:50 54.59734 -109.77382 13443 ft 544 kts 185°
2026-04-19 01:50 54.56407 -109.79081 13265 ft 469 kts 206°
2026-04-19 01:50 54.53537 -109.81220 13047 ft 437 kts 206°
2026-04-19 01:50 54.50754 -109.83407 13365 ft 460 kts 209°
2026-04-19 01:51 54.48105 -109.86526 13994 ft 455 kts 229°
2026-04-19 01:51 54.47239 -109.91454 13197 ft 477 kts 269°
2026-04-19 01:51 54.46994 -109.97419 12903 ft 489 kts 266°
2026-04-19 01:51 54.46515 -110.02925 10892 ft 455 kts 265°
2026-04-19 01:52 54.46095 -110.08226 8005 ft 438 kts 254°
2026-04-19 01:52 54.44778 -110.12810 5896 ft 425 kts 228°
2026-04-19 01:52 54.42633 -110.16037 5159 ft 392 kts 220°
2026-04-19 01:52 54.40569 -110.18701 4715 ft 372 kts 198°
2026-04-19 01:53 54.37947 -110.19778 3014 ft 396 kts 194°
2026-04-19 01:53 54.36335 -110.22573 2425 ft 334 kts 283°
2026-04-19 01:53 54.37645 -110.25328 2530 ft 288 kts 325°
2026-04-19 01:53 54.39127 -110.27031 2575 ft 225 kts 327°
2026-04-19 01:54 54.40364 -110.28427 2391 ft 212 kts 328°
2026-04-19 01:54 54.41590 -110.28444 2668 ft 189 kts 59°
2026-04-19 01:54 54.41419 -110.26386 2838 ft 188 kts 137°
2026-04-19 01:54 54.40540 -110.24927 2744 ft 170 kts 136°
2026-04-19 01:55 54.39596 -110.23697 2607 ft 170 kts 160°
2026-04-19 01:55 54.38620 -110.24360 2455 ft 161 kts 242°
2026-04-19 01:55 54.38653 -110.25929 2022 ft 121 kts 297°
2026-04-19 01:55 54.39159 -110.27025 1812 ft 115 kts 326°
2026-04-19 01:56 54.39651 -110.27624 1778 ft 65 kts 323°
2026-04-19 01:56 54.39979 -110.28030 1778 ft 42 kts 326°
2026-04-19 01:56 54.40116 -110.28152 1778 ft 12 kts 48°
2026-04-19 01:56 54.40172 -110.28020 1778 ft 16 kts 33°
2026-04-19 01:57 54.40308 -110.27965 1778 ft 23 kts
2026-04-19 01:57 54.40425 -110.27887 1778 ft 16 kts 70°
2026-04-19 01:57 54.40458 -110.27687 1778 ft 19 kts 77°
2026-04-19 01:57 54.40486 -110.27568 1779 ft 16 kts 55°
2026-04-19 01:58 54.40533 -110.27535 1777 ft 0 kts 304°